Flag for Mexico Weather past 2 weeks in Cancún, Quintana Roo, Mexico

Now
73 °F

Passing clouds.


Feels Like: 68 °F
Forecast: 74 / 85 °F
Wind: 6 mph from Northwest

Location: Cancun International Airport

Current Time: Feb 27, 2015 at 1:19:34 AM

Latest Report: Feb 27, 2015 at 12:45 AM


Visibility: 7 mi

Pressure: 29.91 "Hg

Humidity: 100%

Dew point: 73 °F

Location of CancúnLocation

Historic Weather in Cancún — Graph

°F

Cancún temperature yesterday

Maximum temperature yesterday: 84 °F (at 1:58 PM)
Minimum temperature yesterday: 73 °F (at 9:48 PM)
Average temperature yesterday: 78 °F

Past Weeks' High & Low Weather Summary

 TemperatureHumidityPressure
High84 °F (Feb 17, 1:51 PM)100% (Feb 12, 4:54 AM)30.27 "Hg (Feb 12, 4:54 AM)
Low57 °F (Feb 13, 5:43 AM)44% (Feb 19, 12:46 PM)29.79 "Hg (Feb 26, 4:41 AM)
Average72 °F77%30.06 "Hg
* Reported Feb 11 11:42 PM — Feb 26 11:46 PM, Cancún, Weather by CustomWeather, © 2015

Note: Actual official high and low records may vary slightly from our data, if they occured in-between our weather recording intervals... More about our weather records

Advertising

Cancún weather history for previous 24 hours

 ConditionsComfort  
Time TempWeatherWind HumidityBarometerVisibility
11:46 PM
Thu, Feb 26
73 °FPassing clouds.6 mph100%29.97 "Hg7 mi
10:47 PM73 °FPassing clouds.6 mph100%29.96 "Hg7 mi
9:48 PM73 °FPassing clouds.6 mph100%29.89 "Hg7 mi
8:48 PM75 °FPassing clouds.3 mph94%29.93 "Hg7 mi
7:51 PM77 °FPartly cloudy.2 mph89%29.90 "Hg7 mi
5:47 PM81 °FBroken clouds.12 mph79%29.87 "Hg6 mi
3:48 PM84 °FScattered clouds.17 mph70%29.83 "Hg7 mi
2:46 PM84 °FScattered clouds.15 mph74%29.83 "Hg7 mi
1:58 PM84 °FPartly sunny.3 mph70%29.85 "Hg7 mi
12:48 PM82 °FPartly sunny.8 mph79%29.87 "Hg7 mi
11:47 AM79 °FPartly sunny.5 mph89%29.91 "Hg7 mi
10:52 AM79 °FScattered clouds.6 mph89%29.91 "Hg7 mi
9:50 AM81 °FScattered clouds.5 mph84%29.89 "Hg7 mi
8:49 AM79 °FScattered clouds.3 mph84%29.89 "Hg7 mi
7:48 AM77 °FScattered clouds.6 mph89%29.86 "Hg7 mi
5:44 AM77 °FPassing clouds.12 mph89%29.80 "Hg7 mi
4:41 AM77 °FPassing clouds.9 mph89%29.79 "Hg7 mi
Weather by CustomWeather, © 2015

See weather overviewHow to use our weather pages